| time (UTC) | temp F | wind direction | speed MPH | gust MPH | rain 1hr in | rain 24hr in | rain mn in | humidity % | barometer mb |
| 20260504234608 | 50 | 254 | 1.0 | 5.0 | 0.00 | 0.00 | 0.00 | 48 | 997.9 |
| 20260504233118 | 50 | 150 | 2.0 | 9.0 | 0.00 | 0.00 | 0.00 | 50 | 997.9 |
| 20260504231620 | 50 | 188 | 2.0 | 8.0 | 0.00 | 0.00 | 0.00 | 47 | 998.1 |
| 20260504230017 | 51 | 262 | 1.0 | 4.0 | 0.00 | 0.00 | 0.00 | 43 | 997.7 |
| 20260504224519 | 52 | 325 | 3.0 | 6.0 | 0.00 | 0.00 | 0.00 | 39 | 997.6 |
| 20260504223035 | 52 | 321 | 2.0 | 5.0 | 0.00 | 0.00 | 0.00 | 41 | 997.8 |
| 20260504221515 | 52 | 321 | 5.0 | 9.0 | 0.00 | 0.00 | 0.00 | 41 | 997.9 |
| 20260504220050 | 51 | 306 | 4.0 | 8.0 | 0.00 | 0.00 | 0.00 | 45 | 997.9 |
| 20260504214555 | 51 | 294 | 3.0 | 15.0 | 0.00 | 0.00 | 0.00 | 48 | 997.8 |
| 20260504213107 | 55 | 310 | 2.0 | 8.0 | 0.00 | 0.00 | 0.00 | 31 | 997.6 |
| 20260504211554 | 58 | 246 | 5.0 | 10.0 | 0.00 | 0.00 | 0.00 | 29 | 997.5 |
| 20260504204610 | 56 | 189 | 2.0 | 11.0 | 0.00 | 0.00 | 0.00 | 38 | 997.9 |
| 20260504203122 | 55 | 265 | 3.0 | 7.0 | 0.00 | 0.00 | 0.00 | 38 | 998.4 |
| 20260504201600 | 56 | 267 | 3.0 | 12.0 | 0.00 | 0.00 | 0.00 | 36 | 998.5 |
| 20260504200126 | 56 | 309 | 4.0 | 11.0 | 0.00 | 0.00 | 0.00 | 38 | 998.6 |
| 20260504194618 | 54 | 247 | 4.0 | 9.0 | 0.00 | 0.00 | 0.00 | 34 | 998.6 |
| 20260504193010 | 55 | 360 | 3.0 | 9.0 | 0.00 | 0.00 | 0.00 | 30 | 999.0 |
| 20260504191628 | 53 | 322 | 0.0 | 8.0 | 0.00 | 0.00 | 0.00 | 38 | 999.4 |
| 20260504190018 | 51 | 281 | 2.0 | 14.0 | 0.00 | 0.00 | 0.00 | 38 | 999.7 |
| 20260504184542 | 52 | 286 | 3.0 | 9.0 | 0.00 | 0.00 | 0.00 | 35 | 999.4 |
| 20260504183043 | 52 | 256 | 2.0 | 8.0 | 0.00 | 0.00 | 0.00 | 32 | 999.7 |
| 20260504181557 | 53 | 259 | 4.0 | 9.0 | 0.00 | 0.00 | 0.00 | 36 | 999.8 |
| 20260504180038 | 53 | 360 | 3.0 | 8.0 | 0.00 | 0.00 | 0.00 | 32 | 1000.0 |
| 20260504174503 | 54 | 265 | 2.0 | 6.0 | 0.00 | 0.00 | 0.00 | 35 | 1000.0 |
| 20260504173120 | 54 | 279 | 4.0 | 10.0 | 0.00 | 0.00 | 0.00 | 34 | 1000.5 |
| 20260504171619 | 54 | 281 | 3.0 | 12.0 | 0.00 | 0.00 | 0.00 | 35 | 1000.9 |
| 20260504140109 | 43 | 84 | 0.0 | 0.0 | 0.00 | 0.00 | 0.00 | 50 | 1002.5 |
| 20260504120118 | 39 | 142 | 0.0 | 0.0 | 0.00 | 0.00 | 0.00 | 53 | 1002.5 |
| 20260504100115 | 38 | 82 | 0.0 | 0.0 | 0.00 | 0.00 | 0.00 | 50 | 1002.8 |
| 20260504090118 | 38 | 80 | 2.0 | 3.0 | 0.00 | 0.00 | 0.00 | 51 | 1003.0 |
| 20260504081600 | 39 | 86 | 0.0 | 2.0 | 0.00 | 0.00 | 0.00 | 50 | 1003.6 |
| 20260504080105 | 38 | 72 | 1.0 | 3.0 | 0.00 | 0.00 | 0.00 | 50 | 1003.8 |
| 20260504044604 | 42 | 63 | 0.0 | 0.0 | 0.00 | 0.00 | 0.00 | 42 | 1004.8 |
| 20260504043108 | 43 | 46 | 0.0 | 0.0 | 0.00 | 0.00 | 0.00 | 42 | 1005.0 |
| 20260504041556 | 44 | 338 | 0.0 | 0.0 | 0.00 | 0.00 | 0.00 | 41 | 1005.0 |
| 20260504040116 | 44 | 338 | 0.0 | 0.0 | 0.00 | 0.00 | 0.00 | 39 | 1005.0 |
| 20260504034634 | 45 | 338 | 0.0 | 0.0 | 0.00 | 0.00 | 0.00 | 40 | 1005.1 |
| 20260504033056 | 45 | 338 | 0.0 | 2.0 | 0.00 | 0.00 | 0.00 | 39 | 1005.0 |
| 20260504031517 | 45 | 338 | 0.0 | 1.0 | 0.00 | 0.00 | 0.00 | 36 | 1005.1 |
| 20260504030007 | 46 | 338 | 0.0 | 2.0 | 0.00 | 0.00 | 0.00 | 39 | 1005.0 |
| 20260504024511 | 46 | 338 | 0.0 | 5.0 | 0.00 | 0.00 | 0.00 | 37 | 1004.9 |
| 20260504023002 | 47 | 343 | 0.0 | 0.0 | 0.00 | 0.00 | 0.00 | 35 | 1004.7 |
| 20260504021609 | 48 | 343 | 0.0 | 0.0 | 0.00 | 0.00 | 0.00 | 33 | 1004.5 |
| 20260504020108 | 49 | 343 | 0.0 | 0.0 | 0.00 | 0.00 | 0.00 | 35 | 1004.4 |
| 20260504014607 | 50 | 336 | 1.0 | 5.0 | 0.00 | 0.00 | 0.00 | 32 | 1004.2 |
| 20260504013057 | 51 | 351 | 1.0 | 6.0 | 0.00 | 0.00 | 0.00 | 29 | 1004.3 |
| 20260504011511 | 52 | 297 | 2.0 | 8.0 | 0.00 | 0.00 | 0.00 | 27 | 1004.2 |
| 20260504010009 | 52 | 300 | 2.0 | 5.0 | 0.00 | 0.00 | 0.00 | 31 | 1004.3 |
| 20260504004516 | 53 | 47 | 0.0 | 2.0 | 0.00 | 0.00 | 0.00 | 28 | 1004.5 |
| 20260504003017 | 54 | 239 | 1.0 | 7.0 | 0.00 | 0.00 | 0.00 | 29 | 1004.4 |
| 20260504001505 | 54 | 267 | 1.0 | 7.0 | 0.00 | 0.00 | 0.00 | 25 | 1004.4 |
| 20260504000017 | 54 | 323 | 1.0 | 5.0 | 0.00 | 0.00 | 0.00 | 26 | 1004.5 |